CST,Max TemperatureF,Mean TemperatureF,Min TemperatureF,Max Dew PointF,MeanDew PointF,Min DewpointF,Max Humidity, Mean Humidity, Min Humidity, Max Sea Level PressureIn, Mean Sea Level PressureIn, Min Sea Level PressureIn, Max VisibilityMiles, Mean VisibilityMiles, Min VisibilityMiles, Max Wind SpeedMPH, Mean Wind SpeedMPH, Max Gust SpeedMPH,PrecipitationIn, CloudCover, Events, WindDirDegrees
2013-2-1,24,16,8,18,7,0,79,65,54,30.51,30.40,30.29,10,10,10,12,6,22,0.00,2,,248
2013-2-2,39,32,24,27,22,16,86,70,52,30.29,30.13,30.05,10,10,2,14,8,18,0.00,5,Snow,247
2013-2-3,33,27,21,28,23,18,93,81,60,30.17,30.09,30.00,10,8,0,14,3,23,0.05,5,Snow,276
2013-2-4,46,34,23,39,30,18,93,81,70,30.08,29.91,29.81,10,10,10,15,6,21,0.00,4,Rain,204
2013-2-5,51,38,26,37,31,25,93,80,54,30.13,29.97,29.90,10,8,2,12,5,20,0.00,1,,276
2013-2-6,46,35,24,34,31,23,93,82,57,30.27,30.19,30.13,10,8,2,7,2,,0.00,0,,129
2013-2-7,62,48,33,52,40,30,93,78,52,30.13,29.97,29.83,10,8,2,12,5,24,0.09,2,Rain,175
2013-2-8,42,38,33,39,30,27,93,81,75,30.39,30.26,29.97,10,10,7,15,10,24,0.00,8,,358
2013-2-9,44,38,32,36,30,27,87,75,61,30.39,30.28,30.10,10,10,7,13,7,16,0.01,4,Rain,124
2013-2-10,53,46,39,50,43,36,93,86,76,30.09,29.85,29.68,10,10,2,22,9,28,0.48,7,Rain-Thunderstorm,159
2013-2-11,53,43,32,46,30,25,81,61,40,30.15,30.01,29.78,10,10,10,18,11,31,0.00,0,,256
2013-2-12,44,35,26,34,30,25,93,78,57,30.18,30.08,29.92,10,10,5,8,1,,0.00,1,,13
2013-2-13,48,42,35,36,33,30,93,78,50,29.92,29.88,29.84,10,9,5,12,5,16,0.00,3,Rain,242
2013-2-14,55,45,35,37,35,32,93,73,44,30.05,29.93,29.86,10,9,3,13,6,21,0.00,1,,248
2013-2-15,39,32,26,34,24,16,93,68,41,30.23,30.17,30.04,10,10,10,13,3,18,0.00,4,,323
2013-2-16,33,27,21,21,15,9,86,63,35,30.22,30.19,30.17,10,10,10,10,4,17,0.00,2,,316
2013-2-17,42,30,19,23,19,16,93,66,36,30.26,30.16,30.04,10,10,10,13,4,,0.00,0,,136
2013-2-18,57,46,35,46,38,23,93,77,56,30.03,29.84,29.62,10,10,4,24,13,36,0.38,4,Rain-Thunderstorm,185
2013-2-19,39,32,24,36,20,12,87,66,48,30.27,30.08,29.84,10,10,10,17,11,28,0.00,3,,289
2013-2-20,26,22,19,18,14,10,93,69,54,30.40,30.33,30.26,10,10,10,10,5,,0.00,0,,351
2013-2-21,33,26,19,30,23,18,93,84,69,30.32,30.12,29.84,10,8,1,22,7,28,0.29,4,Snow,70
2013-2-22,39,34,28,34,31,25,93,87,75,30.08,29.95,29.81,10,7,0,15,4,25,0.00,7,Fog,224
2013-2-23,37,30,23,27,23,19,86,76,56,30.06,30.03,29.98,10,10,7,8,1,,0.00,0,,282
2013-2-24,44,32,21,30,25,19,93,76,53,30.17,30.10,30.02,10,8,2,6,1,,0.00,0,,66
2013-2-25,48,39,30,34,30,27,87,69,53,30.09,29.93,29.61,10,10,7,20,10,31,0.00,2,Rain-Thunderstorm,63
2013-2-26,48,42,35,45,39,30,93,88,61,29.61,29.45,29.36,10,8,2,23,13,30,0.60,8,Rain-Thunderstorm,165
2013-2-27,37,35,33,34,31,28,93,84,75,29.85,29.76,29.62,10,9,4,16,10,25,0.00,8,Rain-Snow,262
2013-2-28,35,34,33,32,30,28,87,85,81,30.07,29.97,29.85,10,7,1,12,7,18,0.00,8,Rain-Snow,290